Regional Weather Roundup
Issued by NWS

Home | Current Version | Previous Version | Graphics & Text | Print | Product List | Glossary On
Versions: 1 2 3 4 5 6 7 8 9 10 11 12 13 14 15 16 17 18 19 20 21 22 23 24 25 26 27 28
000
ASUS45 KSLC 260510
RWRUT

UTAH REGIONAL WEATHER ROUNDUP
NATIONAL WEATHER SERVICE SALT LAKE CITY UT
1100 PM MDT THU MAY 25 2017

UTZ001>011-023>025-260600-

NORTHERN UTAH

CITY           SKY/WX    TMP DP  RH WIND       PRES   REMARKS
BRIGHAM CITY   CLEAR     53  33  47 CALM      29.77R
HILL AFB       CLEAR     55  26  32 E13       29.76R
LOGAN          CLEAR     49  39  68 CALM      29.79R
OGDEN          CLEAR     54  28  36 NE3       29.75R
SALT LAKE CITY CLEAR     58  37  45 S3        29.74R
TOOELE VALLEY  CLEAR     50  32  50 S7        29.76R
WENDOVER       CLEAR     61  23  23 NE14      29.74R
HEBER CITY     CLEAR     48  34  57 CALM      29.81R
WEST JORDAN    CLEAR     55  39  53 SW7       29.77R

$$

UTZ011>015-024>027-260600-

CENTRAL/NORTHEAST UTAH

CITY           SKY/WX    TMP DP  RH WIND       PRES   REMARKS
PROVO AIRPORT  CLEAR     58  39  49 N6        29.77R
MOAB/CANYONLAN CLOUDY    60  49  66 NE6       29.77R
DELTA          CLEAR     57  34  41 E7        29.72S
PRICE          CLEAR     54  32  43 CALM      29.82R
ROOSEVELT      CLEAR     50  34  53 SW6       29.84R
VERNAL         CLEAR     54  22  28 NE5       29.83R

$$

UTZ013>016-019>022-027-260600-

SOUTHERN UTAH

CITY           SKY/WX    TMP DP  RH WIND       PRES   REMARKS
BRYCE CANYON   PTCLDY    41  32  70 CALM      29.93R
CEDAR CITY     MOCLDY    63  33  32 S5        29.76R
MILFORD        LGT RAIN  64  37  36 W7        29.71R
ST GEORGE      CLEAR     83  17   8 S16       29.61R
HANKSVILLE     CLOUDY    68  34  28 CALM      29.78R
BLANDING       MOCLDY    60  31  33 NE7       29.91R

$$

REGIONAL REPORTS     COLORADO/ARIZONA

CITY           SKY/WX    TMP DP  RH WIND       PRES   REMARKS
CRAIG, CO      CLOUDY    47  42  83 SE3       29.92R
GRAND JUNCTION CLOUDY    65  35  33 W5        29.82R
RIFLE, CO      CLOUDY    57  42  57 SE7       29.89R
MONTROSE, CO   CLOUDY    60  37  42 E15       29.92R
CORTEZ, CO     CLOUDY    69  26  20 VRB7G21   29.84R
COLORADO CITY    N/A     68  21  17 S5        29.80R
PAGE, AZ       PTCLDY    79  17  10 SW12G20   29.72R
GRAND CANYON   CLEAR     59   9  13 SW12      29.96R
KINGMAN, AZ    CLEAR     71  19  14 SW13      29.75R
FLAGSTAFF, AZ  CLEAR     59   5  11 SW13      30.00R

$$

REGIONAL REPORTS    NEVADA/IDAHO/WYOMING

CITY           SKY/WX    TMP DP  RH WIND       PRES   REMARKS
LAS VEGAS, NV  PTCLDY    84  17   8 S9G18     29.57R
ELY, NY        CLEAR     40  19  43 S8        29.78R WCI  34
ELKO, NV       CLOUDY    56  31  38 NE6       29.70R
POCATELLO, ID  CLEAR     48  31  51 SE5       29.80R
BURLEY, ID     CLOUDY    54  36  50 E7        29.76R
FORT BRIDGER,    N/A     47  23  39 N5        29.93R
EVANSTON, WY   CLEAR     43  25  49 E8        29.89R
ROCK SPRINGS,  CLOUDY    44  27  51 NE7       29.91R
KEMMERER, WY     N/A     41  25  52 N3        29.91R

$$




USA.gov is the U.S. government's official web portal to all federal, state and local government web resources and services.